DW5735 Weather Reports


Display with metric or nautical units.
time (UTC)temp
F
wind
direction
speed
MPH
gust
MPH
rain 1hr
in
rain 24hr
in
rain mn
in
humidity
%
barometer
mb
20260504060105 61 77 0.0 0.0 0.00 0.00 0.00 50 1008.9
20260504050328 64 95 0.0 1.0 0.00 0.00 0.00 46 1009.5
20260504050104 64 96 0.0 3.0 0.00 0.00 0.00 48 1008.7
20260504045842 64 94 0.0 3.0 0.00 0.00 0.00 50 1009.6
20260504045320 65 21 1.0 2.0 0.00 0.00 0.00 48 1009.5
20260504044845 65 159 0.0 3.0 0.00 0.00 0.00 46 1009.5
20260504044608 64 131 0.0 3.0 0.00 0.00 0.00 48 1008.6
20260504044321 65 79 2.0 3.0 0.00 0.00 0.00 52 1009.5
20260504043820 65 103 0.0 1.0 0.00 0.00 0.00 51 1009.4
20260504043348 64 101 0.0 1.0 0.00 0.00 0.00 54 1009.4
20260504043113 64 89 0.0 1.0 0.00 0.00 0.00 57 1008.5
20260504042819 65 30 0.0 0.0 0.00 0.00 0.00 56 1009.4
20260504042329 65 103 0.0 0.0 0.00 0.00 0.00 57 1009.3
20260504041834 65 85 0.0 0.0 0.00 0.00 0.00 58 1009.3
20260504041617 65 48 0.0 0.0 0.00 0.00 0.00 56 1008.4
20260504041318 66 86 0.0 0.0 0.00 0.00 0.00 58 1009.3
20260504040829 66 86 0.0 0.0 0.00 0.00 0.00 52 1009.2
20260504040333 66 60 0.0 0.0 0.00 0.00 0.00 52 1009.2
20260504040103 66 177 0.0 0.0 0.00 0.00 0.00 61 1008.3
20260504035819 67 177 0.0 0.0 0.00 0.00 0.00 61 1009.1
20260504035356 68 176 0.0 1.0 0.00 0.00 0.00 46 1009.1
20260504034820 69 208 0.0 1.0 0.00 0.00 0.00 50 1009.1
20260504034628 68 208 0.0 1.0 0.00 0.00 0.00 46 1008.3
20260504034337 69 268 0.0 1.0 0.00 0.00 0.00 45 1009.1
20260504033847 69 107 0.0 1.0 0.00 0.00 0.00 45 1009.0
20260504033340 70 78 0.0 0.0 0.00 0.00 0.00 48 1008.9
20260504033010 70 105 0.0 0.0 0.00 0.00 0.00 46 1008.0
20260504032835 70 105 0.0 0.0 0.00 0.00 0.00 44 1008.9
20260504032321 71 276 0.0 1.0 0.00 0.00 0.00 46 1008.9
20260504031825 71 158 0.0 3.0 0.00 0.00 0.00 43 1008.8
20260504031520 71 134 0.0 3.0 0.00 0.00 0.00 46 1008.0
20260504031343 71 49 1.0 5.0 0.00 0.00 0.00 48 1008.9
20260504030853 72 177 1.0 5.0 0.00 0.00 0.00 46 1008.9
20260504030319 74 108 0.0 1.0 0.00 0.00 0.00 41 1008.9
20260504030100 73 108 0.0 4.0 0.00 0.00 0.00 41 1008.0
20260504025835 74 82 0.0 6.0 0.00 0.00 0.00 42 1008.9
20260504025358 74 79 2.0 6.0 0.00 0.00 0.00 40 1008.9
20260504024840 74 132 0.0 1.0 0.00 0.00 0.00 39 1008.8
20260504024516 74 98 0.0 1.0 0.00 0.00 0.00 41 1008.0
20260504024340 74 87 0.0 1.0 0.00 0.00 0.00 41 1008.9
20260504023842 74 152 0.0 1.0 0.00 0.00 0.00 43 1008.9
20260504023322 74 360 0.0 1.0 0.00 0.00 0.00 44 1009.0
20260504023104 73 231 0.0 1.0 0.00 0.00 0.00 45 1008.1
20260504022855 74 253 0.0 1.0 0.00 0.00 0.00 48 1008.9
20260504022330 75 245 0.0 3.0 0.00 0.00 0.00 47 1008.9
20260504021836 78 217 0.0 3.0 0.00 0.00 0.00 44 1008.9
20260504021607 79 283 0.0 3.0 0.00 0.00 0.00 41 1008.0
20260504021343 80 139 0.0 0.0 0.00 0.00 0.00 36 1008.9
20260504020824 80 138 0.0 1.0 0.00 0.00 0.00 34 1008.8
20260504020335 79 219 1.0 3.0 0.00 0.00 0.00 36 1008.8
20260504020133 78 222 0.0 3.0 0.00 0.00 0.00 36 1008.0
20260504015820 79 222 1.0 3.0 0.00 0.00 0.00 35 1008.9
20260504015329 80 249 2.0 3.0 0.00 0.00 0.00 33 1009.0
20260504014837 81 103 0.0 1.0 0.00 0.00 0.00 30 1009.0
20260504014604 80 103 0.0 5.0 0.00 0.00 0.00 33 1008.1
20260504014327 80 284 0.0 5.0 0.00 0.00 0.00 34 1008.9
20260504013842 80 291 4.0 5.0 0.00 0.00 0.00 30 1009.0
20260504013403 82 40 0.0 1.0 0.00 0.00 0.00 29 1008.9
20260504013118 82 84 0.0 0.0 0.00 0.00 0.00 29 1008.1
20260504012852 83 232 0.0 0.0 0.00 0.00 0.00 28 1008.9
20260504012331 81 232 0.0 0.0 0.00 0.00 0.00 29 1009.1
20260504011828 79 231 0.0 0.0 0.00 0.00 0.00 32 1009.1
20260504011605 78 231 0.0 0.0 0.00 0.00 0.00 33 1008.2
20260504011342 78 248 0.0 1.0 0.00 0.00 0.00 32 1009.1
20260504010833 77 249 0.0 2.0 0.00 0.00 0.00 35 1009.1
20260504010348 77 229 0.0 2.0 0.00 0.00 0.00 39 1009.2
20260504010014 79 259 1.0 2.0 0.00 0.00 0.00 32 1008.3
20260504005838 80 270 1.0 2.0 0.00 0.00 0.00 31 1009.2
20260504005327 79 169 0.0 0.0 0.00 0.00 0.00 33 1009.3
20260504004824 76 118 0.0 1.0 0.00 0.00 0.00 35 1009.4
20260504004603 74 162 0.0 1.0 0.00 0.00 0.00 37 1008.6
20260504004338 74 181 0.0 1.0 0.00 0.00 0.00 41 1009.6
20260504003857 74 239 0.0 2.0 0.00 0.00 0.00 46 1009.7
20260504003354 76 233 0.0 2.0 0.00 0.00 0.00 43 1009.6
20260504003103 77 257 0.0 2.0 0.00 0.00 0.00 36 1008.8
20260504002835 77 211 0.0 0.0 0.00 0.00 0.00 34 1009.7
20260504002324 76 211 0.0 3.0 0.00 0.00 0.00 40 1009.8
20260504001820 77 277 1.0 3.0 0.00 0.00 0.00 37 1009.8
20260504001616 77 307 0.0 3.0 0.00 0.00 0.00 34 1009.0
20260504001326 77 253 0.0 0.0 0.00 0.00 0.00 34 1009.9
20260504000829 74 232 0.0 2.0 0.00 0.00 0.00 37 1009.9
20260504000332 72 203 0.0 4.0 0.00 0.00 0.00 42 1010.0
20260504000106 71 239 0.0 4.0 0.00 0.00 0.00 46 1009.3
20260503235827 72 236 1.0 4.0 0.00 0.00 0.00 50 1010.1
20260503235336 73 266 0.0 3.0 0.00 0.00 0.00 41 1010.0
20260503234821 73 226 0.0 2.0 0.00 0.00 0.00 46 1010.1
20260503234618 72 222 0.0 2.0 0.00 0.00 0.00 44 1009.2
20260503234323 73 219 1.0 5.0 0.00 0.00 0.00 45 1010.2
20260503233838 72 208 1.0 5.0 0.00 0.00 0.00 45 1010.2
20260503233322 73 260 1.0 4.0 0.00 0.00 0.00 43 1010.2
20260503233105 72 225 0.0 5.0 0.00 0.00 0.00 40 1009.3
20260503232823 72 235 2.0 5.0 0.00 0.00 0.00 42 1010.2
20260503232344 71 231 4.0 5.0 0.00 0.00 0.00 42 1010.3
20260503231841 72 219 3.0 5.0 0.00 0.00 0.00 44 1010.4
20260503231606 72 246 1.0 2.0 0.00 0.00 0.00 40 1009.6
20260503231356 73 250 1.0 1.0 0.00 0.00 0.00 40 1010.4
20260503230846 72 226 0.0 5.0 0.00 0.00 0.00 43 1010.5
20260503230323 75 281 3.0 5.0 0.00 0.00 0.00 38 1010.6
20260503230110 75 287 0.0 2.0 0.00 0.00 0.00 34 1009.8
20260503225827 76 253 0.0 2.0 0.00 0.00 0.00 33 1010.7
20260503225337 75 253 1.0 3.0 0.00 0.00 0.00 34 1010.7
20260503224827 73 229 2.0 4.0 0.00 0.00 0.00 37 1010.8
20260503224601 72 236 1.0 7.0 0.00 0.00 0.00 38 1010.1
20260503224335 71 221 1.0 7.0 0.00 0.00 0.00 40 1010.9
20260503223831 69 183 5.0 7.0 0.00 0.00 0.00 43 1011.0
20260503223325 69 236 1.0 6.0 0.00 0.00 0.00 55 1011.0
20260503223109 68 228 0.0 6.0 0.00 0.00 0.00 53 1010.2
20260503222825 69 210 2.0 7.0 0.00 0.00 0.00 50 1011.0
20260503222352 69 211 4.0 7.0 0.00 0.00 0.00 51 1011.1
20260503221821 69 229 3.0 4.0 0.00 0.00 0.00 42 1011.2
20260503221619 68 231 1.0 3.0 0.00 0.00 0.00 43 1010.4
20260503221319 68 227 0.0 1.0 0.00 0.00 0.00 52 1011.4
20260503220825 69 231 0.0 1.0 0.00 0.00 0.00 54 1011.4
20260503220335 69 219 0.0 3.0 0.00 0.00 0.00 45 1011.4
20260503220114 68 238 0.0 6.0 0.00 0.00 0.00 45 1010.7
20260503215829 68 242 2.0 6.0 0.00 0.00 0.00 44 1011.5
20260503214835 67 232 3.0 6.0 0.00 0.00 0.00 54 1011.7
20260503214602 67 218 2.0 6.0 0.00 0.00 0.00 56 1010.9
20260503214352 69 253 3.0 6.0 0.00 0.00 0.00 50 1011.8
20260503213822 70 241 2.0 3.0 0.00 0.00 0.00 39 1011.8
20260503213327 68 243 1.0 2.0 0.00 0.00 0.00 41 1012.0
20260503213100 67 188 0.0 2.0 0.00 0.00 0.00 43 1011.3
20260503212853 66 242 1.0 4.0 0.00 0.00 0.00 46 1012.1
20260503212339 66 246 1.0 5.0 0.00 0.00 0.00 53 1012.2
20260503211838 67 246 4.0 8.0 0.00 0.00 0.00 53 1012.3
20260503211506 66 210 1.0 8.0 0.00 0.00 0.00 45 1011.5
20260503211328 66 215 4.0 8.0 0.00 0.00 0.00 46 1012.4
20260503210908 67 228 5.0 8.0 0.00 0.00 0.00 53 1012.4
20260503210341 68 229 5.0 6.0 0.00 0.00 0.00 42 1012.5
20260503210132 68 243 2.0 8.0 0.00 0.00 0.00 42 1011.7
20260503205833 67 203 2.0 8.0 0.00 0.00 0.00 46 1012.6
20260503205326 69 274 3.0 8.0 0.00 0.00 0.00 40 1012.7
20260503204819 68 232 1.0 6.0 0.00 0.00 0.00 46 1012.7
20260503204621 67 226 1.0 7.0 0.00 0.00 0.00 48 1012.0
20260503204318 66 220 3.0 8.0 0.00 0.00 0.00 48 1012.9
20260503203821 65 215 6.0 8.0 0.00 0.00 0.00 48 1012.9
20260503203338 64 193 4.0 7.0 0.00 0.00 0.00 63 1013.0
20260503203005 64 246 0.0 3.0 0.00 0.00 0.00 60 1012.3
20260503202823 65 246 1.0 4.0 0.00 0.00 0.00 56 1013.1
20260503202344 64 239 2.0 4.0 0.00 0.00 0.00 59 1013.1
20260503201832 64 238 2.0 4.0 0.00 0.00 0.00 61 1013.2
20260503201335 65 231 2.0 9.0 0.00 0.00 0.00 54 1013.3
20260503200840 65 218 5.0 9.0 0.00 0.00 0.00 59 1013.4
20260503200330 65 238 4.0 6.0 0.00 0.00 0.00 45 1013.5
20260503200114 65 235 3.0 6.0 0.00 0.00 0.00 43 1012.8
20260503195828 65 243 4.0 6.0 0.00 0.00 0.00 45 1013.5
20260503195355 64 231 5.0 9.0 0.00 0.00 0.00 55 1013.6
20260503194826 62 221 7.0 9.0 0.00 0.00 0.00 51 1013.8
20260503194610 61 223 6.0 9.0 0.00 0.00 0.00 61 1013.1
20260503194342 62 242 4.0 7.0 0.00 0.00 0.00 60 1013.8
20260503193831 62 211 3.0 7.0 0.00 0.00 0.00 67 1014.0
20260503193336 63 243 5.0 8.0 0.00 0.00 0.00 50 1014.0
20260503193119 62 235 4.0 8.0 0.00 0.00 0.00 55 1013.3
20260503192829 63 228 7.0 8.0 0.00 0.00 0.00 59 1014.1
20260503192350 62 242 1.0 9.0 0.00 0.00 0.00 57 1014.2
20260503191823 62 222 4.0 9.0 0.00 0.00 0.00 68 1014.4
20260503191619 62 224 7.0 9.0 0.00 0.00 0.00 64 1013.6
20260503191322 63 221 0.0 7.0 0.00 0.00 0.00 52 1014.3
20260503190825 64 219 4.0 7.0 0.00 0.00 0.00 61 1014.5
20260503190323 64 201 0.0 4.0 0.00 0.00 0.00 45 1014.4
20260503190105 63 206 0.0 4.0 0.00 0.00 0.00 46 1014.0
20260503185850 63 243 1.0 4.0 0.00 0.00 0.00 52 1014.7
20260503185339 63 228 0.0 3.0 0.00 0.00 0.00 49 1014.8
20260503184840 62 190 0.0 3.0 0.00 0.00 0.00 66 1014.7
20260503184558 62 246 0.0 3.0 0.00 0.00 0.00 51 1014.2
20260503184321 62 249 0.0 4.0 0.00 0.00 0.00 53 1014.9
20260503183819 62 262 0.0 4.0 0.00 0.00 0.00 62 1015.0
20260503183321 63 242 0.0 2.0 0.00 0.00 0.00 52 1015.1
20260503183106 62 239 0.0 0.0 0.00 0.00 0.00 56 1014.5
20260503182842 62 224 0.0 0.0 0.00 0.00 0.00 58 1015.2
20260503182324 61 239 0.0 0.0 0.00 0.00 0.00 58 1015.3
20260503181829 60 245 0.0 0.0 0.00 0.00 0.00 64 1015.3
20260503181606 59 252 0.0 0.0 0.00 0.00 0.00 65 1014.7
20260503181318 60 281 0.0 1.0 0.00 0.00 0.00 63 1015.4
20260503180838 60 249 0.0 2.0 0.00 0.00 0.00 61 1015.4
20260503180339 60 259 1.0 3.0 0.00 0.00 0.00 58 1015.5
20260503175850 60 225 0.0 0.0 0.00 0.00 0.00 57 1015.5
20260503175325 60 222 0.0 0.0 0.00 0.00 0.00 60 1015.6
20260503174829 59 242 0.0 0.0 0.00 0.00 0.00 64 1015.7
20260503174604 58 266 0.0 0.0 0.00 0.00 0.00 67 1015.0
20260503174336 59 249 0.0 0.0 0.00 0.00 0.00 64 1015.6
20260503173823 59 239 0.0 0.0 0.00 0.00 0.00 64 1015.7
20260503173330 59 240 0.0 0.0 0.00 0.00 0.00 61 1015.8
20260503173105 59 255 0.0 0.0 0.00 0.00 0.00 62 1015.2
20260503172835 59 243 0.0 1.0 0.00 0.00 0.00 66 1015.9
20260503172329 59 226 0.0 1.0 0.00 0.00 0.00 66 1016.0
20260503171835 58 259 0.0 0.0 0.00 0.00 0.00 60 1016.1
20260503171611 58 211 0.0 0.0 0.00 0.00 0.00 65 1015.4
20260503171327 58 259 0.0 0.0 0.00 0.00 0.00 62 1016.1
20260503170832 58 256 0.0 0.0 0.00 0.00 0.00 65 1016.2
20260503170331 59 251 0.0 0.0 0.00 0.00 0.00 58 1016.2
20260503170119 58 235 0.0 0.0 0.00 0.00 0.00 61 1015.7
20260503160115 56 245 0.0 0.0 0.00 0.00 0.00 65 1016.5
20260503150844 56 25 0.0 0.0 0.00 0.00 0.00 60 1017.3
20260503150400 56 27 0.0 0.0 0.00 0.00 0.00 58 1017.3
20260503150104 55 29 0.0 0.0 0.00 0.00 0.00 58 1016.8
20260503131347 50 63 0.0 0.0 0.00 0.00 0.00 64 1016.9
20260503130840 51 66 0.0 0.0 0.00 0.00 0.00 64 1016.8
20260503130350 50 67 0.0 0.0 0.00 0.00 0.00 65 1016.7
20260503130103 49 72 0.0 0.0 0.00 0.00 0.00 64 1016.2
20260503110320 50 105 0.0 0.0 0.00 0.00 0.00 68 1016.8
20260503100106 51 97 0.0 0.0 0.00 0.00 0.00 62 1015.9
20260503090325 55 94 0.0 0.0 0.00 0.00 0.00 57 1016.2
20260503081608 55 91 0.0 0.0 0.00 0.00 0.00 57 1015.6
20260503081326 56 91 0.0 0.0 0.00 0.00 0.00 56 1016.2
20260503080827 56 215 0.0 0.0 0.00 0.00 0.00 62 1016.2
20260503080324 56 215 0.0 0.0 0.00 0.00 0.00 58 1016.1
20260503072818 57 67 0.0 0.0 0.00 0.00 0.00 55 1015.9
20260503072330 57 66 0.0 0.0 0.00 0.00 0.00 53 1015.9
20260503071822 57 67 0.0 0.0 0.00 0.00 0.00 52 1015.9
20260503071614 57 67 0.0 0.0 0.00 0.00 0.00 52 1015.2
20260503071333 58 66 0.0 0.0 0.00 0.00 0.00 51 1015.9
20260503070837 58 66 0.0 0.0 0.00 0.00 0.00 51 1015.9
20260503070339 59 66 0.0 0.0 0.00 0.00 0.00 49 1015.8
20260503070104 59 66 0.0 0.0 0.00 0.00 0.00 48 1015.1